Theta_e
308 309 310 311 312 312 313 315 315 315 315 315 315 316 316 316 315 314 313 309 303 298 297 297 297 299 300 302 303 304 304 303 302 301 300 299 299 299 298 296 293 290
308 310 311 311 311 311 311 312 313 313 314 315 315 315 316 316 314 314 313 306 298 295 295 295 297 299 301 302 303 303 302 301 300 300 299 297 296 296 295 293 290 288
307 308 309 310 310 311 311 310 310 311 313 314 313 312 313 314 313 312 309 302 296 294 293 293 296 298 300 302 302 301 301 300 298 296 294 293 292 292 290 289 288 288
304 306 308 309 309 310 310 310 309 310 311 311 310 309 310 310 310 308 304 299 295 293 292 292 293 296 299 300 300 299 297 295 293 291 290 290 289 289 288 288 288 287
302 304 306 307 308 307 308 308 308 309 310 309 308 307 307 307 307 306 302 297 294 292 291 291 291 292 294 294 294 293 291 290 289 289 288 288 288 288 288 287 287 287
301 303 305 306 306 305 306 307 308 309 309 309 307 306 306 305 305 304 302 297 294 291 290 290 290 290 290 290 289 289 288 288 288 288 288 288 288 287 287 287 286 286
301 302 304 305 304 304 304 306 307 308 309 308 306 306 306 304 301 300 299 295 292 290 290 289 289 289 288 288 288 288 288 288 288 288 288 288 287 287 286 286 285 285
301 302 303 303 302 302 303 303 304 306 306 305 304 304 304 303 300 298 295 292 290 289 289 289 289 289 288 288 288 288 288 288 288 288 287 287 287 286 286 285 285 285
301 301 302 301 300 300 301 301 302 304 304 302 301 302 302 301 300 297 293 290 289 289 289 289 289 288 288 288 288 288 288 288 288 287 287 287 286 286 285 285 285 284
299 299 299 299 299 299 299 299 300 302 302 300 300 300 299 297 296 294 291 289 288 289 289 288 288 288 288 288 288 288 288 288 287 287 287 286 286 285 285 285 285 284
298 297 297 298 298 298 298 298 300 301 300 299 299 297 295 294 293 291 289 288 288 288 288 288 288 288 288 288 288 287 287 287 287 286 286 286 286 285 285 285 285 285
297 296 296 297 297 297 297 298 299 299 297 297 298 296 293 292 292 290 288 288 288 288 288 288 288 288 288 288 287 287 287 287 286 286 286 286 285 285 285 285 284 284
296 296 297 297 297 297 297 297 298 297 295 295 297 296 293 291 291 290 288 288 288 288 288 288 288 287 287 287 287 287 287 286 286 286 285 285 285 285 284 284 284 284
297 297 297 297 297 297 297 296 296 296 295 294 294 294 293 291 291 290 289 288 287 287 287 287 287 287 287 287 287 287 287 286 286 285 285 285 285 284 284 284 284 284
297 298 298 297 296 295 294 294 295 295 294 293 293 293 292 290 290 289 288 287 287 287 287 287 287 287 287 287 287 287 286 286 286 285 285 285 284 284 284 284 284 285
295 296 296 296 295 294 293 293 293 293 292 292 292 291 289 287 287 287 286 286 287 287 286 286 286 287 287 287 287 287 286 286 286 285 285 284 284 284 284 285 285 286
294 294 294 293 293 292 292 292 291 290 290 290 289 287 286 286 286 286 286 286 286 286 286 286 286 287 287 287 287 287 286 286 286 285 285 284 284 284 285 286 286 286
293 293 292 292 292 291 291 291 290 289 288 287 287 286 286 285 285 286 286 285 285 286 286 286 286 286 286 286 286 286 286 286 285 285 284 284 284 284 286 287 288 288
292 292 291 291 290 290 290 290 289 288 287 286 286 286 286 285 285 285 284 284 284 285 285 285 286 286 286 285 285 285 285 285 285 284 284 284 284 285 287 289 289 289
292 291 291 290 290 289 288 288 287 287 287 287 286 285 285 284 284 284 284 284 284 284 284 285 285 286 286 285 285 285 285 285 284 284 285 285 285 286 287 289 290 290
291 291 290 289 289 288 287 286 286 286 286 285 285 285 285 284 284 283 284 284 283 283 284 284 285 285 285 285 285 285 285 284 284 285 285 285 285 286 287 289 291 291
291 290 290 289 288 288 287 286 286 285 285 285 284 285 285 284 283 283 283 283 283 282 283 284 284 284 285 285 285 284 284 284 284 285 285 285 285 286 286 289 291 291
291 290 289 289 288 287 287 286 286 285 285 285 284 284 284 284 283 283 282 282 282 282 282 283 283 283 283 284 284 283 283 283 284 285 285 285 285 285 286 289 291 291
291 290 289 289 288 287 287 286 286 285 285 285 284 284 284 283 283 282 282 282 282 282 282 282 282 282 282 282 282 282 282 283 284 285 285 285 286 286 287 289 290 291
290 290 289 289 288 287 287 286 286 285 285 285 284 284 284 283 283 283 282 282 282 282 282 282 282 282 282 282 282 282 282 283 284 284 285 285 286 287 288 289 290 290
290 289 289 289 288 287 287 286 286 285 284 284 284 284 284 284 283 283 283 283 282 282 282 282 283 283 282 282 283 283 283 284 283 284 285 286 288 288 288 288 289 289
Wind_Speed
34 33 32 32 33 33 33 34 33 34 35 35 34 32 32 32 30 30 30 30 30 31 30 30 31 32 33 35 37 38 38 37 35 34 31 29 27 25 24 25 23 21
35 34 33 32 33 33 32 31 32 34 35 35 34 34 33 32 31 31 31 31 32 31 31 31 31 32 33 35 37 37 37 35 33 32 29 27 25 23 23 23 21 20
35 35 34 33 33 33 31 30 32 34 34 34 35 34 34 33 32 32 33 33 33 32 32 32 32 32 34 35 36 35 34 33 31 29 26 24 23 22 22 22 20 19
35 35 35 34 34 33 32 32 33 34 34 34 34 34 34 33 33 33 34 34 33 33 33 32 32 32 33 33 33 33 32 30 28 26 25 23 22 22 21 20 19 18
35 35 35 35 35 34 33 33 33 34 34 34 34 34 34 34 34 34 35 35 35 34 34 33 32 32 32 32 32 31 30 28 26 25 24 23 22 21 20 19 18 18
34 35 36 35 35 34 33 33 34 35 34 33 34 36 36 36 36 36 36 37 36 36 35 34 33 32 32 31 30 29 28 26 25 24 23 22 21 20 19 18 19 19
35 36 36 35 34 34 34 34 35 35 33 33 35 37 37 37 37 37 38 38 38 37 36 35 34 33 32 31 30 28 26 25 24 23 23 22 21 20 19 19 19 19
36 37 36 35 34 33 34 34 34 33 32 32 34 36 36 36 36 37 38 38 38 38 36 35 34 33 32 30 29 27 25 24 23 23 23 22 21 21 21 20 19 18
36 36 35 34 34 34 34 34 33 32 31 32 33 34 35 35 35 37 38 39 38 37 36 35 34 33 31 30 28 27 25 24 23 23 24 23 22 22 21 21 19 18
36 35 34 34 34 34 35 34 34 33 32 32 34 35 35 35 36 38 38 38 38 37 36 35 34 33 31 30 28 26 25 24 24 24 24 23 22 22 21 20 19 17
35 34 34 34 35 35 35 35 34 33 33 33 34 34 34 35 36 38 39 38 38 37 36 35 34 34 32 30 28 26 25 25 25 25 23 22 22 21 20 18 17 15
35 35 35 35 35 35 35 35 35 34 33 33 34 34 34 35 37 38 39 39 38 37 37 36 35 34 33 31 29 28 27 26 25 24 23 22 22 20 18 16 15 12
36 36 36 36 35 36 36 35 35 34 34 33 33 34 34 36 37 38 39 39 38 38 37 37 36 34 32 31 30 29 28 27 26 24 23 23 21 19 18 15 13 11
37 37 37 36 35 36 35 35 35 34 34 33 33 34 35 37 38 39 40 40 39 39 38 37 36 34 33 32 30 29 29 28 27 25 23 22 21 19 17 15 13 12
37 37 37 35 35 34 34 34 34 34 33 33 34 35 36 37 38 39 40 40 39 38 37 36 36 35 34 33 31 31 30 28 26 25 23 22 21 20 17 14 13 13
35 35 35 35 34 34 34 34 34 33 33 33 34 34 34 35 36 37 39 40 39 39 38 37 36 35 33 33 32 31 30 29 27 26 24 23 21 19 16 14 15 16
33 33 34 34 34 34 34 33 32 32 32 33 33 33 34 34 35 37 38 39 40 41 40 39 37 35 34 34 33 32 30 29 28 27 25 23 20 18 16 16 17 19
32 32 33 34 34 34 33 32 31 31 31 32 33 34 34 34 36 37 38 39 39 40 39 38 37 36 35 34 32 31 30 29 27 26 24 22 20 18 18 19 20 21
31 32 32 33 33 32 32 31 31 31 32 32 33 33 33 33 33 35 36 36 36 36 35 36 35 34 33 32 31 30 29 27 25 24 22 21 20 20 21 21 22 23
30 31 31 32 31 30 30 30 30 31 31 31 31 31 31 30 31 32 34 35 35 34 34 35 35 34 34 32 31 30 28 26 25 23 22 22 22 22 23 23 24 25
29 29 30 30 30 29 29 28 28 29 29 29 29 29 30 30 30 31 32 33 32 32 33 34 34 34 34 32 31 30 28 27 25 24 23 23 23 24 25 26 26 26
29 29 29 29 29 28 28 27 27 27 27 27 27 28 28 28 28 29 29 30 30 30 31 32 33 33 32 32 30 29 27 26 25 24 23 23 24 26 28 28 28 28
28 29 29 28 28 28 27 27 27 27 27 27 26 26 27 27 27 27 27 28 28 29 29 30 30 30 30 29 28 27 26 25 24 23 23 24 26 28 29 31 32 31
28 29 28 27 27 27 27 27 27 26 27 26 26 26 26 26 25 25 25 25 26 27 27 27 27 26 27 26 25 24 24 23 23 22 23 25 27 29 31 33 34 34
27 27 27 27 27 27 26 26 26 26 25 25 25 25 24 24 24 23 23 23 23 24 24 24 23 23 23 23 22 22 22 22 22 23 24 26 28 29 31 33 36 36
25 26 26 26 26 25 25 25 25 25 24 24 24 24 23 23 23 23 23 22 21 21 22 22 22 21 21 21 20 21 22 23 23 24 26 27 28 29 29 31 34 35
Wind_Direction
220 222 224 225 225 224 219 214 215 215 211 209 208 208 209 210 211 211 210 210 210 210 211 212 211 210 208 206 205 205 205 206 209 211 213 214 215 216 214 210 209 208
221 223 224 225 224 221 218 219 221 219 215 214 214 212 210 209 209 209 209 209 208 209 211 211 209 208 207 206 205 205 206 208 210 212 213 212 212 210 208 206 206 204
221 221 222 223 222 221 221 224 225 221 217 217 217 214 210 209 209 207 206 206 207 208 210 209 208 208 207 206 205 205 207 208 209 209 207 204 204 203 202 201 200 200
219 220 221 223 223 223 225 226 226 223 219 219 218 214 211 209 207 205 204 204 206 207 208 207 207 207 206 205 204 204 205 205 204 201 199 197 197 198 197 197 198 199
219 220 221 223 225 225 226 226 225 222 221 221 218 214 211 207 206 205 204 204 205 206 206 205 204 204 203 202 200 200 199 198 197 196 194 193 193 194 195 196 198 198
219 220 222 224 226 225 226 226 224 222 222 222 220 216 212 207 205 205 205 204 204 204 203 202 201 200 198 197 196 196 196 195 194 193 193 192 191 194 197 198 199 198
219 221 222 224 225 224 225 225 223 222 223 224 221 218 214 209 206 205 205 205 203 202 201 200 199 198 196 196 195 194 194 194 193 192 194 194 194 195 197 199 200 200
220 221 223 223 223 222 223 222 221 222 225 225 223 220 217 213 209 206 205 204 202 201 200 199 199 198 197 196 195 195 194 194 195 196 197 196 195 196 198 199 202 203
220 221 222 222 220 220 220 220 220 223 225 225 223 220 218 215 212 209 205 203 202 200 199 199 199 198 197 197 197 197 196 196 198 200 201 198 197 198 200 201 202 204
218 219 220 219 219 219 219 218 221 223 225 224 221 219 216 212 211 209 205 203 201 200 200 200 199 199 199 199 199 199 198 199 201 203 203 201 200 202 203 203 205 207
217 217 217 218 219 219 219 220 221 223 223 223 221 218 214 211 209 207 205 203 202 201 201 200 201 201 200 199 198 198 200 202 204 204 204 204 204 206 206 207 209 213
216 216 217 218 219 219 220 221 222 222 222 221 220 218 214 212 210 207 205 204 203 203 203 202 202 202 201 200 198 199 201 204 206 206 206 207 206 207 208 210 213 218
216 218 219 219 220 220 220 221 221 222 221 220 219 217 214 212 210 208 207 206 205 205 205 204 203 202 201 201 200 201 203 205 206 207 209 209 209 208 209 211 215 221
217 219 221 221 221 222 221 220 221 221 221 220 218 216 215 215 213 212 209 206 206 206 205 205 204 202 202 202 202 204 206 207 208 209 210 211 211 211 211 213 218 226
216 219 220 222 221 220 219 219 220 221 221 219 218 217 216 216 215 213 209 206 205 206 206 206 205 204 205 204 204 206 207 209 210 211 213 213 212 212 211 215 222 231
215 216 217 218 218 218 217 218 219 219 218 217 217 217 215 213 212 210 208 205 204 205 205 206 206 206 208 208 209 210 210 210 212 214 215 215 215 213 213 219 228 236
213 213 213 214 215 216 216 217 217 216 215 215 214 213 212 211 211 210 209 207 205 205 205 206 207 208 210 211 212 213 213 213 214 215 215 215 215 214 217 225 232 239
210 210 211 212 213 214 214 215 215 213 211 210 210 210 211 212 212 212 210 208 207 206 206 206 207 209 211 212 212 213 214 215 216 216 216 216 216 218 225 233 238 242
208 208 208 209 211 212 212 212 211 209 209 209 209 210 211 210 210 209 208 208 208 207 207 207 208 209 211 212 213 214 215 215 217 218 219 220 221 224 232 240 245 246
206 206 206 207 208 208 207 207 207 207 209 209 208 207 207 207 208 208 209 209 209 208 208 208 208 210 212 213 214 216 216 217 218 219 221 224 227 231 238 246 252 253
204 203 203 204 205 205 205 205 205 206 206 206 205 205 206 207 208 208 208 208 208 208 208 209 209 211 213 215 216 216 217 216 216 218 222 226 231 237 242 250 257 260
202 201 201 202 202 203 203 203 203 203 204 204 203 205 207 208 208 207 207 207 207 207 208 210 211 212 213 216 217 216 215 214 215 219 225 229 235 241 245 253 262 265
201 200 199 199 200 200 201 203 204 203 203 203 201 202 204 206 206 207 207 207 207 206 207 210 212 211 212 214 214 212 213 214 216 221 227 234 241 245 249 257 264 267
201 200 198 197 198 199 201 202 203 202 203 203 202 201 202 203 204 205 206 208 209 208 209 210 211 210 211 212 212 211 213 216 220 225 232 239 245 249 255 262 267 270
199 198 198 197 198 199 201 202 202 202 202 202 202 203 202 202 203 204 205 208 211 212 212 213 214 213 213 213 213 213 216 220 224 229 236 243 249 254 260 266 271 274
196 196 197 199 199 198 200 201 201 200 199 198 200 202 203 202 202 204 205 207 208 210 212 213 212 212 213 215 217 219 222 225 226 231 239 246 252 259 263 267 270 273